Regional Weather Roundup
Issued by NWS

Home | Current Version | Previous Version | Text Only | Print | Product List | Glossary On
Versions: 1 2 3 4 5 6 7 8 9 10 11 12 13 14 15 16 17 18 19 20 21 22 23 24 25 26 27 28 29 30 31 32 33 34 35 36 37 38 39 40 41 42 43 44 45 46 47 48 49 50
979
ASUS46 KSTO 251515
RWRCA

NORTHERN AND CENTRAL CA REGIONAL WEATHER ROUNDUP
NATIONAL WEATHER SERVICE SACRAMENTO CA
800 AM PDT MON JUL 25 2016

NOTE: FAIR INDICATES FEW OR NO CLOUDS BELOW 12,000 FEET WITH NO
SIGNIFICANT WEATHER AND/OR OBSTRUCTIONS TO VISIBILITY.

CAZ001-003-251600-
NORTHWEST AREA

CITY           SKY/WX    TMP DP  RH WIND       PRES   REMARKS
CRESCENT CITY  CLOUDY    57  55  93 NW3       30.03S
UKIAH          SUNNY     64  51  62 CALM      29.93S
$$

CAZ006-505>513-251600-
BAY AREA

CITY           SKY/WX    TMP DP  RH WIND       PRES   REMARKS
SANTA ROSA     CLOUDY    52  51  97 CALM      29.93S FOG
SAN RAFAEL     N/A       53  MM  MM MISG
NAPA           CLOUDY    56  54  93 SW7       29.95R
CONCORD        SUNNY     64  51  62 N6        29.92R
OAKLAND CITY   N/A       56  MM  MM MISG
OAKLAND        CLOUDY    60  56  86 CALM      29.96R
SAN FRAN CITY  N/A       54  MM  96 MISG
SAN FRAN ARPT  MOSUNNY   58  53  84 E3        29.95S
LIVERMORE      SUNNY     61  53  75 CALM      29.93S
HAYWARD        CLOUDY    61  53  75 CALM      29.95R
REDWOOD CITY   N/A       61  MM  82 MISG
MOFFETT ARPT   PTSUNNY   62  55  77 CALM      29.95S
SAN JOSE ARPT  MOSUNNY   60  51  72 SE7       29.95R
$$
CAZ034-037-514>518-251600-
CENTRAL COAST

CITY           SKY/WX    TMP DP  RH WIND       PRES   REMARKS
WATSONVILLE    CLOUDY    53  51  93 CALM      29.99R FOG
SALINAS        CLOUDY    55  51  86 SW3       29.99R FOG
MONTEREY       CLOUDY    53  52  96 SW5       29.99S FOG
SAN LUIS OBISP CLOUDY    53  51  93 S3        29.98R FOG
SANTA MARIA    FOG       51  51 100 CALM      29.98R VSB 1/4
$$
CAZ015-016-251600-
NORTHERN SACRAMENTO VALLEY

CITY           SKY/WX    TMP DP  RH WIND       PRES   REMARKS
REDDING        SUNNY     78  53  41 N3        29.91R
RED BLUFF      SUNNY     79  56  45 CALM      29.91R
OROVILLE       SUNNY     75  49  39 S6        29.91S
$$
CAZ016>018-251600-
SOUTHERN SACRAMENTO VALLEY

CITY           SKY/WX    TMP DP  RH WIND       PRES   REMARKS
AUBURN         SUNNY     79  39  24 E7        29.96S
LINCOLN        FAIR      70  46  43 S3        29.89R
MARYSVILLE     SUNNY     70  32  24 CALM      29.89R
SAC INTL ARPT  MOSUNNY   62  53  72 S5        29.88R
MATHER AIRPORT SUNNY     64  52  63 CALM      29.90R
DOWNTOWN SAC   N/A       67  MM  MM MISG
SAC EXEC ARPT  SUNNY     64  52  64 SW8       29.89S
VACAVILLE      SUNNY     66  52  60 SW5       29.90R
TRAVIS AFB     SUNNY     61  53  75 SW18      29.88R
$$
CAZ019>021-251600-
SAN JOAQUIN VALLEY

CITY           SKY/WX    TMP DP  RH WIND       PRES   REMARKS
STOCKTON       FAIR      69  55  60 NW7       29.89R
MODESTO        SUNNY     71  54  54 NW5       29.89R
MERCED         SUNNY     74  55  51 N8        29.88R
LEMOORE        PTSUNNY   78  44  29 NW7       29.89S
FRESNO         SUNNY     75  52  44 SE8       29.90R
HANFORD        SUNNY     78  48  34 W5        29.90R
PORTERVILLE    SUNNY     79  45  29 S8        29.91R
BAKERSFIELD    SUNNY     81  39  22 SE6       29.90R
$$
CAZ011-012-071-251600-
NORTHERN MOUNTAINS

CITY           SKY/WX    TMP DP  RH WIND       PRES   REMARKS
YREKA          SUNNY     69  47  45 NE3       30.07R
MOUNT SHASTA   SUNNY     67  54  63 CALM      30.09S
ALTURAS        SUNNY     66  38  35 CALM      30.16R
$$
CAZ011-012-071-251600-
SIERRA NEVADA MTNS

CITY           SKY/WX    TMP DP  RH WIND       PRES   REMARKS
TRUCKEE        SUNNY     46  30  53 CALM      30.29S
TAHOE VLY ARPT SUNNY     49  34  56 S3        30.29R
MAMMOTH LAKES  FAIR      62  28  27 CALM      30.33S
$$




USA.gov is the U.S. government's official web portal to all federal, state and local government web resources and services.